Weather History for Proserpine, QU

Change the Weather History Date:

Tuesday, February 11, 2014

  Actual Average Record
Temperature  
Mean Temperature 78 °F -  
Max Temperature 84 °F - - ()
Min Temperature 72 °F - - ()
Cooling Degree Days 13    
Growing Degree Days 28 (Base 50)    
Moisture  
Dew Point 72 °F    
Average Humidity 81    
Maximum Humidity 100    
Minimum Humidity 62    
Precipitation  
Precipitation 0.01 in - - ()
Sea Level Pressure  
Sea Level Pressure 29.86 in    
Wind  
Wind Speed 10 mph ()    
Max Wind Speed 18 mph    
Max Gust Speed 24 mph    
Visibility 6.2 miles    
Events      
T = Trace of Precipitation, MM = Missing Value Source: Averaged Metar Reports

Daily Weather History Graph

Daily Weather History Graph

Search for Another Location

Airport:

Trip Planner

Search our weather history database for the weather conditions in past years. The results will help you decide how hot, cold, wet, or windy it might be!

Date:

Astronomy

Feb. 11, 2014 Rise Set
Actual Time 5:54 AM AEST 6:45 PM AEST
Civil Twilight 5:31 AM AEST 7:08 PM AEST
Nautical Twilight 5:04 AM AEST 7:35 PM AEST
Astronomical Twilight 4:36 AM AEST 8:02 PM AEST
Moon 3:58 PM AEST (2/11) 2:34 AM AEST (2/11)
Length of Visible Light 13h 36m
Length of Day
12h 50m
Waxing Gibbous, 87% of the Moon is Illuminated
Feb 11
Waxing Gibbous
Feb 15
Full
Feb 23
Last Quarter
Mar 1
New
Mar 8
First Quarter

Hourly Weather History & Observations

Time (AEST) Temp. Heat Index Dew Point Humidity Pressure Visibility Wind Dir Wind Speed Gust Speed Precip Events Conditions
12:00 AM 76 °F - 74 °F 94% 29.87 in - SE 12.7 mph - -   Overcast
12:00 AM 77.0 °F - 75.2 °F 94% 29.86 in 6.2 mi SE 12.7 mph - N/A   Overcast
1:01 AM 75.2 °F - 73.4 °F 94% 29.86 in 3.7 mi ESE 6.9 mph - N/A   Overcast
2:03 AM 75.2 °F - 73.4 °F 94% 29.83 in 3.7 mi South 8.1 mph - N/A   Overcast
3:00 AM 75 °F - 73 °F 93% 29.82 in - SSE 9.2 mph - -  
3:00 AM 75.2 °F - 73.4 °F 94% 29.80 in 6.2 mi SSE 9.2 mph - N/A   Scattered Clouds
4:00 AM 73.4 °F - 73.4 °F 100% 29.83 in 6.2 mi SSE 8.1 mph - N/A   Scattered Clouds
5:00 AM 73.4 °F - 71.6 °F 94% 29.80 in 6.2 mi South 8.1 mph - N/A   Unknown
6:00 AM 73 °F - 72 °F 95% 29.84 in - South 6.9 mph - -  
6:00 AM 73.4 °F - 71.6 °F 94% 29.83 in 6.2 mi South 6.9 mph - N/A   Unknown
7:00 AM 75.2 °F - 71.6 °F 89% 29.86 in 6.2 mi South 9.2 mph - N/A   Scattered Clouds
8:00 AM 78.8 °F - 73.4 °F 83% 29.86 in 6.2 mi SSE 10.4 mph - N/A   Unknown
9:00 AM 81 °F - 73 °F 71% 29.88 in - SSE 11.5 mph - -   Overcast
9:00 AM 80.6 °F 85.4 °F 73.4 °F 79% 29.89 in 6.2 mi SSE 11.5 mph 24.2 mph N/A   Overcast
10:00 AM 82.4 °F 87.2 °F 71.6 °F 70% 29.89 in 6.2 mi SE 16.1 mph - N/A   Scattered Clouds
11:00 AM 82.4 °F 87.2 °F 71.6 °F 70% 29.86 in 6.2 mi ESE 17.3 mph - N/A   Scattered Clouds
12:00 PM 83 °F - 74 °F 69% 29.87 in - SE 18.4 mph - -  
12:00 PM 82.4 °F 88.2 °F 73.4 °F 74% 29.86 in 6.2 mi SE 18.4 mph - N/A   Mostly Cloudy
1:00 PM 84.2 °F 90.9 °F 73.4 °F 70% 29.86 in 6.2 mi ESE 17.3 mph - N/A   Mostly Cloudy
2:00 PM 84.2 °F 88.4 °F 69.8 °F 62% 29.83 in 6.2 mi ESE 18.4 mph - N/A   Mostly Cloudy
3:00 PM 80 °F - 71 °F 67% 29.85 in 10 mi ESE 18.4 mph - -   Mostly Cloudy
3:00 PM 80.6 °F 84.6 °F 71.6 °F 74% 29.83 in 6.2 mi ESE 18.4 mph - N/A   Overcast
4:00 PM 80.6 °F 83.9 °F 69.8 °F 70% 29.83 in 6.2 mi ESE 16.1 mph - N/A   Overcast
5:00 PM 78.8 °F - 71.6 °F 78% 29.86 in 6.2 mi SE 16.1 mph - N/A   Mostly Cloudy
6:00 PM 79 °F - 70 °F 66% 29.86 in - ESE 11.5 mph - -  
6:00 PM 78.8 °F - 69.8 °F 74% 29.86 in 6.2 mi ESE 11.5 mph - N/A   Scattered Clouds
7:00 PM 77.0 °F - 69.8 °F 78% 29.86 in 6.2 mi SE 10.4 mph - N/A   Unknown
8:00 PM 77.0 °F - 69.8 °F 78% 29.86 in 6.2 mi SE 10.4 mph - N/A   Scattered Clouds
9:00 PM 76 °F - 69 °F 73% 29.90 in - SSE 8.1 mph - -  
9:00 PM 75.2 °F - 69.8 °F 83% 29.89 in 6.2 mi SSE 8.1 mph - N/A   Unknown
10:00 PM 75.2 °F - 69.8 °F 83% 29.89 in 6.2 mi South 8.1 mph - N/A   Scattered Clouds
11:00 PM 73.4 °F - 69.8 °F 88% 29.89 in 6.2 mi South 6.9 mph - N/A   Mostly Cloudy